Location: ??????
(55.6361°N, 38.0803°E)
Time: 02:22:51
(UTC+00:00)

CZ-2D R/B - Pass Details

Date: 30 March 2020
Orbit: 552 x 639 km, 97.9° (Epoch: 30 May)

Event Time Altitude Azimuth Distance (km) Brightness Sun altitude
Rises 01:12:21 0° 13° (NNE) 2,943 7.7 -15.5°
Reaches altitude 10° 01:14:36 10° 9° (N) 2,021 6.8 -15.2°
Maximum altitude 01:18:56 58° 291° (WNW) 726 3.7 -14.7°
Enters shadow 01:21:35 22° 219° (SW) 1,362 4.8 -14.3°
